Location: Unspecified
(35.7250°N, 0.0000°E)
Time: 02:59:41
(UTC+00:00)

Tiros 1 - Pass Details

Date: 30 June 2019
Orbit: 630 x 664 km, 48.4° (Epoch: 13 October)

Event Time Altitude Azimuth Distance (km) Brightness Sun altitude
Rises 02:52:19 0° 303° (WNW) 2,932 10.5 -18.8°
Reaches altitude 10° 02:54:41 10° 300° (WNW) 2,017 9.6 -18.5°
Maximum altitude 02:59:15 60° 221° (SW) 719 7.0 -17.9°
Drops below altitude 10° 03:03:46 10° 141° (SE) 1,997 9.6 -17.3°
Sets 03:06:06 0° 138° (SE) 2,900 10.5 -17.0°
